Weather History for VTSP - June, 2014

Change the Weather History Date:

Thursday, June 12, 2014

  Actual Average Record
Temperature  
Mean Temperature 80 °F -  
Max Temperature 88 °F 88 °F 95 °F (2000)
Min Temperature 73 °F 77 °F 73 °F (2014)
Cooling Degree Days 16    
Growing Degree Days 30 (Base 50)    
Moisture  
Dew Point 75 °F    
Average Humidity 77    
Maximum Humidity 91    
Minimum Humidity 65    
Precipitation  
Precipitation 1.02 in 0.37 in - ()
Sea Level Pressure  
Sea Level Pressure 29.72 in    
Wind  
Wind Speed 12 mph ()    
Max Wind Speed 25 mph    
Max Gust Speed 36 mph    
Visibility 4.6 miles    
Events Rain    
Averages and records for this station are not official NWS values.
T = Trace of Precipitation, MM = Missing Value Source: Averaged Metar Reports

Daily Weather History Graph

Daily Weather History Graph

Search for Another Location

Airport or City:

Trip Planner

Search our weather history database for the weather conditions in past years. The results will help you decide how hot, cold, wet, or windy it might be!

Date:

Astronomy

Jun. 12, 2014 Rise Set
Actual Time 6:08 AM ICT 6:44 PM ICT
Civil Twilight 5:46 AM ICT 7:07 PM ICT
Nautical Twilight 5:19 AM ICT 7:33 PM ICT
Astronomical Twilight 4:52 AM ICT 8:01 PM ICT
Moon 5:58 PM ICT (6/12) 5:05 AM ICT (6/12)
Length of Visible Light 13h 21m
Length of Day
12h 35m
Waxing Gibbous, 99% of the Moon is Illuminated
Jun 12
Waxing Gibbous
Jun 13
Full
Jun 20
Last Quarter
Jun 27
New
Jul 5
First Quarter

Hourly Weather History & Observations

Time (ICT) Temp. Heat Index Dew Point Humidity Pressure Visibility Wind Dir Wind Speed Gust Speed Precip Events Conditions
12:00 AM 84.2 °F 94.1 °F 77.0 °F 79% 29.74 in 4.3 mi WSW 10.4 mph - N/A   Mostly Cloudy
12:30 AM 84.2 °F 94.1 °F 77.0 °F 79% 29.74 in 4.3 mi WSW 11.5 mph 24.2 mph N/A   Mostly Cloudy
1:00 AM 86 °F - 78 °F 73% 29.70 in 5 mi WSW 18.4 mph - -   Mist
1:00 AM 84.2 °F 92.3 °F 75.2 °F 74% 29.74 in 5.0 mi West 18.4 mph 29.9 mph N/A   Mostly Cloudy
1:30 AM 82.4 °F 89.5 °F 75.2 °F 79% 29.71 in 5.0 mi West 15.0 mph - N/A   Mostly Cloudy
2:00 AM 84.2 °F 94.1 °F 77.0 °F 79% 29.71 in 5.0 mi West 13.8 mph 27.6 mph N/A   Mostly Cloudy
2:30 AM 82.4 °F 89.5 °F 75.2 °F 79% 29.71 in 5.0 mi West 17.3 mph - N/A   Mostly Cloudy
3:00 AM 82.4 °F 90.9 °F 77.0 °F 84% 29.71 in 4.3 mi West 20.7 mph - N/A Rain Light Rain
3:30 AM 82.4 °F 89.5 °F 75.2 °F 79% 29.68 in 5.0 mi West 13.8 mph - N/A   Mostly Cloudy
4:00 AM 85 °F - 78 °F 75% 29.71 in 5 mi West 11.5 mph - - Rain Light Rain
4:00 AM 82.4 °F 88.2 °F 73.4 °F 74% 29.68 in 5.0 mi WSW 11.5 mph - N/A   Mostly Cloudy
4:30 AM 80.6 °F 85.4 °F 73.4 °F 79% 29.71 in 3.1 mi SW 11.5 mph 24.2 mph N/A Rain Rain
5:00 AM 80.6 °F 86.2 °F 75.2 °F 84% 29.71 in 5.0 mi WSW 11.5 mph 23.0 mph N/A   Mostly Cloudy
5:30 AM 82.4 °F 89.5 °F 75.2 °F 79% 29.71 in 4.3 mi WSW 10.4 mph - N/A Rain Light Rain
6:00 AM 78.8 °F - 75.2 °F 89% 29.71 in 3.1 mi West 25.3 mph - N/A Rain Rain
6:30 AM 77.0 °F - 73.4 °F 89% 29.71 in 3.7 mi SW 5.8 mph 21.9 mph N/A Rain Light Rain
7:00 AM 79 °F - 75 °F 83% 29.68 in 4 mi West 11.5 mph - - Rain Light Rain
7:00 AM 80.6 °F 85.4 °F 73.4 °F 79% 29.71 in 4.3 mi West 9.2 mph - N/A   Mostly Cloudy
7:30 AM 75.2 °F - 71.6 °F 89% 29.74 in 1.2 mi Variable 12.7 mph 35.7 mph N/A Rain Heavy Rain
8:00 AM 77.0 °F - 73.4 °F 89% 29.74 in 4.3 mi WSW 4.6 mph - N/A   Mostly Cloudy
8:30 AM 80.6 °F 86.2 °F 75.2 °F 84% 29.74 in 4.3 mi WSW 5.8 mph - N/A   Mostly Cloudy
9:00 AM 80.6 °F 86.2 °F 75.2 °F 84% 29.77 in 4.3 mi WSW 8.1 mph - N/A Rain Rain
9:30 AM 78.8 °F - 75.2 °F 89% 29.80 in 1.6 mi West 18.4 mph - N/A Rain Rain
10:00 AM 81 °F - 79 °F 91% 29.75 in 3 mi WSW 11.5 mph - - Rain Light Rain
10:00 AM 78.8 °F - 75.2 °F 89% 29.77 in 2.5 mi WSW 13.8 mph - N/A Rain Rain
10:30 AM 78.8 °F - 75.2 °F 89% 29.77 in 3.7 mi WSW 15.0 mph - N/A Rain Rain
11:00 AM 82.4 °F 89.5 °F 75.2 °F 79% 29.77 in 4.3 mi West 15.0 mph - N/A Rain Rain
11:30 AM 82.4 °F 90.9 °F 77.0 °F 84% 29.77 in 4.3 mi WSW 16.1 mph - N/A Rain Rain
12:00 PM 82.4 °F 88.2 °F 73.4 °F 74% 29.77 in 5.0 mi WSW 16.1 mph - N/A   Mostly Cloudy
12:30 PM 82.4 °F 88.2 °F 73.4 °F 74% 29.74 in 5.0 mi WSW 15.0 mph - N/A   Mostly Cloudy
1:00 PM 85 °F - 75 °F 65% 29.73 in 5 mi WSW 11.5 mph - - Rain Light Rain
1:00 PM 84.2 °F 90.9 °F 73.4 °F 70% 29.74 in 5.0 mi West 16.1 mph - N/A   Mostly Cloudy
1:30 PM 84.2 °F 92.3 °F 75.2 °F 74% 29.71 in 5.0 mi WSW 16.1 mph - N/A   Mostly Cloudy
2:00 PM 84.2 °F 92.3 °F 75.2 °F 74% 29.71 in 5.0 mi WSW 13.8 mph - N/A Rain Light Rain
2:30 PM 84.2 °F 90.9 °F 73.4 °F 70% 29.71 in 5.0 mi West 17.3 mph - N/A   Mostly Cloudy
3:00 PM 84.2 °F 92.3 °F 75.2 °F 74% 29.71 in 5.0 mi West 15.0 mph - N/A   Mostly Cloudy
3:30 PM 86.0 °F 95.1 °F 75.2 °F 70% 29.71 in 5.0 mi WSW 19.6 mph - N/A   Mostly Cloudy
4:00 PM 86 °F - 77 °F 68% 29.67 in 6 mi WSW 13.8 mph - -   Partly Cloudy
4:00 PM 86.0 °F 95.1 °F 75.2 °F 70% 29.68 in 5.6 mi WSW 17.3 mph - N/A   Mostly Cloudy
4:30 PM 84.2 °F 92.3 °F 75.2 °F 74% 29.68 in 6.2 mi WSW 13.8 mph - N/A   Mostly Cloudy
5:00 PM 84.2 °F 92.3 °F 75.2 °F 74% 29.68 in 5.0 mi WSW 15.0 mph - N/A   Mostly Cloudy
5:30 PM 84.2 °F 92.3 °F 75.2 °F 74% 29.68 in 5.0 mi WSW 11.5 mph - N/A   Mostly Cloudy
6:00 PM 84.2 °F 92.3 °F 75.2 °F 74% 29.68 in 5.0 mi WSW 9.2 mph - N/A   Mostly Cloudy
6:30 PM 84.2 °F 92.3 °F 75.2 °F 74% 29.68 in 5.0 mi WSW 11.5 mph - N/A   Mostly Cloudy
7:00 PM 85 °F - 76 °F 69% 29.66 in 6 mi WSW 8.1 mph - -   Partly Cloudy
7:00 PM 84.2 °F 90.9 °F 73.4 °F 70% 29.68 in 5.0 mi WSW 9.2 mph - N/A   Mostly Cloudy
7:30 PM 84.2 °F 92.3 °F 75.2 °F 74% 29.68 in 5.0 mi WSW 15.0 mph - N/A   Mostly Cloudy
8:00 PM 84.2 °F 92.3 °F 75.2 °F 74% 29.68 in 5.0 mi WSW 15.0 mph - N/A   Mostly Cloudy
8:30 PM 84.2 °F 92.3 °F 75.2 °F 74% 29.71 in 5.0 mi West 11.5 mph - N/A   Mostly Cloudy
9:30 PM 86.0 °F 95.1 °F 75.2 °F 70% 29.71 in 5.0 mi West 13.8 mph - N/A   Mostly Cloudy
10:00 PM 86 °F - 77 °F 69% 29.69 in 6 mi WSW 5.8 mph - -   Mist
10:00 PM 84.2 °F 92.3 °F 75.2 °F 74% 29.71 in 5.0 mi West 13.8 mph - N/A   Mostly Cloudy
10:30 PM 84.2 °F 92.3 °F 75.2 °F 74% 29.74 in 5.0 mi West 13.8 mph - N/A   Mostly Cloudy
11:00 PM 86.0 °F 95.1 °F 75.2 °F 70% 29.74 in 5.0 mi West 17.3 mph - N/A   Mostly Cloudy
11:30 PM 84.2 °F 92.3 °F 75.2 °F 74% 29.74 in 5.0 mi West 13.8 mph - N/A   Mostly Cloudy